FENGYUN 1C DEB

Satellite information

Favourite Embed

Satellite Type and Status

DEBRISIN ORBIT

Key statistics

Satellite FENGYUN 1C DEB at a glance.

Uptime

9610

Days in orbit

Revolutions

≈ 14.5

Per day

Orbit

SSO

Sun Synchronous Orbit

Inclination

99.0

Latest

Satellite identification and parameters

Extended collection of information and parameters for FENGYUN 1C DEB.

Object identification

Identified? True

Debris? True

Object name: FENGYUN 1C DEB

International designator: 1999-025DPL

Object number (NORAD): 35204

Object ID (CCSDS): 35204

Country: PEOPLES REPUBLIC OF CHINA (PRC)

Current information (Y/N): Y

RCS size: SMALL

Orbital parameters

Period: 99.57 minutes

Inclination: 99.014 deg

SMA: 7116.177 km

Apoapsis: 766.246 km

Periapsis: 709.839 km

RAAN: 62.1622 deg

Eccentricy: 0.00396336

Argument of periapsis: 281.6363 deg

Mean anomaly: 145.6988 deg

Mean motion: 14.46214151 rev/day

Mean motion (dot): 0.00008781 rev/day2

B* drag term: 0.0024416376 1/REarth

Two-line elements (TLE)

Creation date: Aug. 28, 2025, 11:13 p.m.

Reference frame: TEME

Reference center: EARTH

Epoch: Aug. 28, 2025, 11:45 a.m. UTC

TLE line 0: 0 FENGYUN 1C DEB

TLE line 1: 1 35204U 99025DPL 25240.49007005 .00008781 00000-0 24416-2 0 9990

TLE line 2: 2 35204 99.0140 62.1622 0039634 281.6363 145.6988 14.46214151893934

Live tracking on map

Real-time ground track for satellite FENGYUN 1C DEB.

In-orbit conjunctions

A list of the most updated potential collisions computed for object FENGYUN 1C DEB.

Target Orbit TCA Probability of collision Miss distance Type
CZ-6A DEB LEO 2025-01-07 08:41:18 0.000533958 183.0 (m) DEBRIS
NOAA 17 DEB SSO 2024-11-15 16:35:07 0.0001915338 448.0 (m) DEBRIS
CZ-6A DEB LEO 2024-09-19 03:26:25 0.0001198468 154.0 (m) DEBRIS
FENGYUN 1C DEB SSO 2024-06-22 18:26:18 0.00016475 68.0 (m) DEBRIS

Associated space launch

Chinese polar orbiting meteorological satellite

FENGYUN 1C DEB was lifted into orbit during the mission ‘Long March 4B | Feng Yun 1C’, on board a Long March 4B space rocket.

The launch took place on May 10, 1999, 1:33 a.m. from Launch Complex 7.

For more information about the launch, click the button.

Launch to space Long March 4B | Feng Yun 1C
Long March 4B | Feng Yun 1C

Agency: N/A

Status: Launch Successful

Launch date: May 10, 1999, 1:33 a.m. UTC

Rocket: Long March 4B

Launch pad: Launch Complex 7

Location: Taiyuan Satellite Launch Center, People's Republic of China

...

Latest news about this satellite

There are no fresh news available about this satellite. Check back as we update our databases every day.


Newsletter sign-up

Weekly statistics, charts and insights to help you stay on top of the space industry.